GEFSSE_500_meanwind_084.txt.gz
Wind_Speed
7 7 7 7 8 8 8 8 9 9 9 10 10 10 10 10 10 10 10 10 9 8 8 7 6 6 6 5 5 5 5 5 5 5 5 5 6 6 5 5 5 6 6
9 9 8 8 8 8 8 8 8 9 9 10 10 11 11 11 10 10 10 10 9 9 8 7 7 6 6 5 5 4 4 4 4 4 4 5 5 5 5 5 4 4 5
10 10 10 9 9 9 9 8 8 9 9 10 10 11 11 11 11 11 10 10 10 9 9 8 7 7 7 6 6 5 4 4 3 3 3 3 4 4 4 4 4 4 4
11 11 12 11 11 11 10 9 9 10 10 10 11 11 11 12 12 11 11 11 10 10 10 9 8 7 7 7 7 6 5 4 4 3 2 2 2 2 2 3 3 3 3
12 12 12 12 12 12 11 11 11 11 12 12 12 13 13 13 13 12 12 12 11 11 11 10 9 9 9 8 8 8 7 6 5 4 3 2 2 1 1 1 1 1 2
13 13 13 13 13 13 13 12 12 12 13 13 14 14 14 14 14 14 14 13 13 12 12 12 11 11 11 10 10 10 9 8 8 6 5 4 4 3 2 1 0 0 1
14 14 15 14 15 15 14 14 14 15 15 16 16 16 16 16 16 16 16 15 15 14 13 13 13 13 13 12 12 12 12 11 10 9 8 7 6 5 4 3 2 2 2
16 16 16 16 16 16 16 17 17 17 18 18 18 19 19 19 19 18 18 17 17 16 15 15 14 14 15 15 15 14 14 13 13 12 11 10 9 8 7 6 5 4 4
17 17 17 17 17 17 18 18 19 19 20 21 21 22 22 22 22 21 20 20 19 18 17 17 16 16 16 16 16 16 17 16 16 15 14 13 12 11 10 9 8 7 6
19 18 19 19 19 19 20 20 21 21 22 23 23 24 24 25 25 24 24 23 22 22 20 19 18 17 17 18 18 18 19 19 19 17 16 15 15 14 13 12 11 10 9
21 21 21 21 21 21 21 22 22 22 23 24 25 25 26 27 27 27 26 25 25 24 23 21 20 19 19 19 19 19 20 21 21 20 19 18 18 17 16 15 14 13 13
23 23 23 22 22 22 22 23 24 24 25 26 27 27 29 29 29 28 28 27 27 26 24 23 22 21 20 20 20 20 21 22 23 22 21 21 20 20 19 18 17 17 16
25 25 24 24 25 25 26 26 26 26 27 29 29 29 31 31 31 31 30 29 29 28 26 25 24 23 23 22 21 21 22 22 23 23 22 22 22 21 22 21 21 20 19
26 26 27 26 27 29 29 29 29 30 30 31 31 32 33 32 33 33 32 30 30 30 29 28 26 25 25 24 23 23 23 24 23 23 23 22 23 23 23 23 23 22 22
28 28 29 30 30 31 32 33 33 33 34 34 34 34 34 34 34 34 34 33 32 31 30 30 28 27 26 27 26 25 24 25 24 23 22 22 24 24 24 23 24 24 24
30 31 31 33 34 34 35 36 37 37 37 36 36 36 35 36 36 35 34 35 34 33 33 31 31 30 28 28 28 27 26 25 24 24 23 23 23 24 24 24 23 23 24
32 33 33 34 35 36 37 38 39 39 39 38 38 37 37 36 36 36 36 35 34 34 34 33 32 31 30 29 28 28 27 27 25 24 24 24 24 24 24 23 23 22 22
34 35 35 36 37 38 38 39 40 40 41 40 39 38 37 37 37 37 37 36 36 34 34 34 34 31 31 30 29 28 27 27 26 25 25 24 24 24 23 21 22 22 22
33 34 36 37 38 38 39 40 42 42 41 41 42 41 39 38 38 38 37 36 35 34 33 33 34 32 31 31 31 31 29 27 26 26 25 24 24 23 23 22 21 21 22
31 33 35 36 38 40 41 42 42 42 42 42 42 42 40 40 39 39 38 37 35 33 32 33 33 32 32 33 33 32 30 28 27 26 25 24 23 22 22 22 21 21 21
32 34 35 37 39 41 41 43 44 43 43 43 44 43 42 40 40 39 38 37 35 34 33 32 32 33 33 32 32 31 30 29 28 26 25 24 23 22 22 22 22 21 21
32 34 36 38 39 41 42 43 43 42 41 41 42 42 41 40 40 39 38 37 34 33 32 31 30 32 32 32 32 31 30 29 29 28 27 26 25 24 24 23 22 21 20
31 33 35 37 38 39 40 40 40 40 40 40 41 40 39 40 40 39 38 36 35 34 33 32 30 30 31 32 32 31 29 29 30 30 28 28 27 26 26 25 23 22 21
32 34 34 36 38 39 40 41 41 41 41 42 42 41 41 41 41 40 39 38 37 36 35 34 33 32 31 32 33 33 32 31 31 30 30 30 29 28 28 27 25 24 23
32 34 34 36 38 39 41 42 42 43 43 44 44 43 43 43 42 41 41 41 40 39 38 36 34 34 33 34 35 35 34 33 33 32 31 32 31 31 30 29 27 26 24
34 36 37 38 38 40 41 42 43 44 44 44 44 44 43 43 43 43 42 42 41 41 41 40 39 38 37 37 37 37 36 35 35 34 34 33 33 32 32 31 29 28 26

GEFSSE_500_meanwind_090.txt.gz
Wind_Speed
8 9 9 8 8 8 9 8 7 7 7 8 9 9 10 10 11 11 11 11 11 11 11 10 9 8 8 7 6 6 6 5 5 6 6 6 7 7 8 8 9 9 10
8 8 8 8 8 8 8 8 7 7 7 7 8 8 9 9 10 10 11 11 11 10 10 10 9 8 8 7 6 5 5 4 4 4 5 5 6 7 7 7 8 9 9
8 8 8 8 8 8 8 8 8 7 7 7 8 8 8 9 9 10 10 10 10 10 10 10 9 9 8 7 6 5 4 3 3 3 3 4 5 6 6 7 7 8 8
8 8 8 8 8 8 8 9 8 8 8 8 8 8 9 9 9 9 9 9 10 10 10 10 10 9 9 8 7 6 5 4 2 2 2 3 4 4 5 6 6 7 8
9 9 8 8 9 9 9 9 9 9 9 9 9 9 9 9 9 9 9 10 10 10 10 10 11 10 10 9 8 7 6 5 3 2 1 0 2 3 4 5 5 6 7
10 10 9 9 9 9 10 10 11 11 11 11 11 10 10 10 10 11 11 11 11 10 11 11 11 11 11 10 10 9 8 7 6 4 3 2 1 2 3 4 5 5 6
11 11 11 10 10 11 12 11 12 12 12 12 12 12 11 11 11 12 13 12 12 12 12 12 12 13 13 12 11 10 9 9 8 7 5 4 4 4 4 4 4 5 6
11 11 11 11 12 12 12 12 13 13 13 13 13 13 13 13 13 14 14 14 14 14 14 14 14 14 14 14 13 12 12 11 10 10 9 8 7 6 6 5 5 5 6
12 12 12 12 12 13 13 13 13 13 13 13 13 14 14 15 15 16 16 15 15 15 15 15 16 16 16 15 14 13 13 13 12 12 11 11 10 9 8 8 7 7 7
13 13 13 13 13 13 14 14 14 14 14 14 14 15 15 16 16 16 17 17 17 17 16 16 16 16 17 17 16 15 15 14 14 14 14 14 13 12 12 11 10 9 9
16 15 15 15 15 15 15 15 15 15 15 16 16 17 18 18 18 18 18 19 19 18 18 17 17 17 17 18 18 17 16 16 16 16 16 16 15 15 15 14 13 12 11
19 18 17 18 18 17 17 17 17 17 18 18 19 19 21 21 21 20 20 20 20 20 19 19 19 19 19 19 19 19 19 18 17 17 17 18 18 17 17 17 16 15 14
22 20 19 19 20 20 20 20 20 20 21 22 22 23 23 23 23 23 22 22 22 22 21 21 21 21 21 21 21 21 21 20 20 19 19 19 19 19 19 19 18 18 17
24 24 23 22 22 22 23 23 24 24 24 25 25 26 25 25 26 25 25 24 24 24 24 23 22 22 22 23 23 23 23 23 22 21 21 21 21 21 21 20 20 20 20
26 26 27 25 24 25 25 25 26 26 27 28 29 29 29 29 28 27 27 26 26 26 25 24 23 23 23 24 24 24 25 25 25 24 22 23 22 22 22 22 22 22 22
28 27 26 25 25 27 27 27 28 29 29 30 30 32 32 30 29 29 29 28 28 27 26 26 26 26 25 24 25 26 26 26 26 26 24 24 24 23 23 23 24 24 23
27 27 27 27 28 28 27 28 30 30 30 30 31 33 33 32 31 31 30 29 28 27 27 27 27 26 26 25 25 26 27 27 27 27 26 25 24 24 24 24 25 25 25
26 27 27 28 28 28 28 29 30 31 31 32 33 33 34 34 32 32 32 31 30 29 29 28 28 27 26 26 27 27 27 28 28 27 27 27 26 25 25 25 25 25 25
27 27 27 28 28 29 30 31 32 33 34 35 36 36 35 35 34 34 34 32 31 31 30 29 29 28 27 27 27 27 28 28 29 29 28 27 27 27 26 26 26 26 25
25 26 27 27 29 30 31 31 33 35 35 37 38 37 37 36 35 35 35 34 32 31 31 30 29 29 28 29 28 27 27 29 29 30 30 28 26 27 27 26 27 26 25
24 26 27 29 31 32 32 34 36 37 37 37 37 37 37 37 36 36 35 34 34 33 32 31 31 30 30 30 30 28 28 29 30 30 30 29 27 27 27 27 28 27 26
25 27 29 30 32 34 34 36 37 38 38 38 38 39 39 39 39 38 37 37 36 35 35 34 32 31 31 31 30 28 27 28 29 29 30 29 28 28 28 28 29 28 26
24 27 28 30 32 34 35 36 37 37 38 40 40 40 40 40 41 40 40 40 39 38 37 35 34 33 32 32 31 30 29 29 28 28 29 30 30 29 29 30 29 28 27
25 27 29 31 33 34 36 37 38 38 39 40 41 40 41 41 41 41 41 41 41 40 38 37 36 35 34 33 33 33 32 31 30 30 29 30 30 30 29 30 29 29 28
25 27 29 31 32 34 36 37 38 38 39 39 40 40 40 40 41 41 41 41 40 40 39 38 37 37 36 35 35 34 34 33 32 32 31 30 30 30 30 30 29 30 29
25 27 28 30 31 32 34 35 36 37 37 37 38 39 39 39 40 40 40 40 39 39 39 39 38 38 38 37 37 36 36 35 34 33 32 32 31 31 32 32 32 31 31

GEFSSE_500_meanwind_096.txt.gz
Wind_Speed
6 6 6 7 7 8 8 8 8 7 7 7 7 7 7 8 8 8 9 9 9 9 9 9 9 9 8 7 7 6 6 5 5 5 5 5 5 6 6 6 7 8 9
7 7 6 6 7 7 7 8 7 6 6 6 6 6 6 6 7 7 7 7 7 7 7 7 7 7 7 6 6 5 5 4 4 4 4 4 5 5 5 6 7 8 9
7 7 7 6 6 6 7 7 6 6 6 6 5 5 6 6 6 6 6 6 6 6 7 6 6 6 5 5 5 4 3 3 3 3 3 3 4 5 5 6 7 8 8
8 8 7 6 6 6 6 6 7 7 7 6 6 6 6 6 6 6 6 6 6 6 7 6 6 5 5 4 3 3 2 1 1 2 3 3 4 5 5 6 6 7 8
9 9 8 7 7 7 7 7 8 8 8 8 7 7 7 7 7 7 7 8 7 7 7 7 7 6 5 5 4 2 2 1 2 2 3 4 4 5 6 6 7 7 8
11 10 9 9 8 8 8 9 9 9 8 8 8 8 8 8 8 9 9 9 9 9 9 8 8 8 7 7 6 5 4 4 4 4 4 5 5 6 6 6 7 7 7
13 12 11 10 9 9 9 10 10 10 10 9 9 10 9 9 10 10 10 11 11 11 11 10 10 10 9 8 8 7 7 6 6 6 6 6 6 7 7 7 7 7 7
13 13 13 12 11 11 11 11 11 11 11 10 10 10 10 10 11 11 12 12 13 13 13 12 12 11 11 10 10 9 9 9 8 8 8 8 8 8 8 8 8 8 8
14 14 13 13 13 12 12 12 12 12 12 12 11 11 11 11 12 12 13 14 15 15 15 14 14 13 13 13 12 12 12 11 11 10 10 10 10 10 9 9 9 9 9
16 15 15 15 15 15 14 14 14 13 13 13 12 12 13 13 13 14 15 16 16 16 16 17 16 16 15 15 14 13 13 13 13 13 12 12 12 12 11 11 11 11 10
18 18 18 17 17 17 17 17 17 16 15 15 15 15 15 15 16 16 17 18 19 19 19 19 18 18 17 17 16 15 15 15 15 15 15 14 14 14 14 13 14 13 12
20 21 20 20 19 19 19 20 20 19 19 19 18 18 18 18 18 19 20 21 22 22 22 22 21 20 20 19 18 17 16 16 17 18 17 17 16 16 17 16 16 16 15
22 21 21 21 22 23 23 24 23 22 22 22 21 20 21 21 21 21 22 23 24 24 25 25 23 22 22 21 20 19 18 18 18 19 19 19 19 18 18 18 19 19 18
23 23 23 24 24 26 27 25 25 25 26 25 25 24 24 25 25 25 25 24 25 26 27 26 26 26 25 23 22 21 20 20 19 20 21 21 21 20 20 20 20 21 21
24 24 24 25 27 28 28 27 26 28 28 28 28 27 27 27 28 27 27 27 28 28 28 28 27 27 27 27 25 24 22 22 22 21 22 23 23 22 22 22 22 23 23
24 24 24 25 26 28 28 28 29 30 32 32 32 29 30 30 29 29 29 29 29 29 29 27 27 27 27 26 25 24 24 24 24 23 23 23 25 25 24 25 24 24 25
24 25 26 26 27 27 28 29 30 31 32 31 30 30 29 29 28 29 28 29 30 30 29 28 27 28 26 25 26 25 25 25 25 25 25 25 25 26 26 26 26 25 26
24 25 26 26 27 28 28 28 29 28 28 28 27 27 28 28 29 29 29 29 31 30 29 28 28 27 26 26 26 26 27 26 25 26 27 27 28 27 28 28 28 28 27
25 25 26 26 27 28 28 28 28 28 28 27 28 29 30 30 31 31 31 31 30 31 29 29 28 27 27 27 27 27 27 27 27 27 27 28 29 29 29 29 29 29 29
25 25 26 27 27 27 28 28 28 28 28 29 30 31 31 32 33 33 32 32 32 31 31 31 29 29 29 29 29 28 28 28 28 28 27 28 29 30 30 30 30 30 30
23 24 25 25 26 28 28 30 30 30 30 31 32 33 34 34 34 34 34 34 34 33 33 33 32 31 31 31 31 31 30 30 30 30 29 29 29 31 31 32 32 32 31
22 24 25 27 28 29 30 31 32 32 32 33 34 34 34 35 35 36 36 36 36 36 35 35 34 34 34 34 33 33 32 31 31 31 31 30 30 32 32 32 32 33 32
22 24 26 28 29 30 31 32 33 33 33 34 34 35 35 36 37 37 36 37 37 37 37 37 37 37 37 37 36 35 33 32 32 32 31 31 31 31 32 33 33 33 32
23 25 27 29 30 32 33 34 34 34 35 35 35 35 36 36 36 36 36 37 37 37 37 38 38 38 38 38 38 37 36 35 33 33 33 32 32 32 33 33 33 33 33
22 24 26 28 30 31 33 33 34 34 35 35 35 36 36 36 35 34 35 35 36 37 37 38 38 38 38 38 39 39 39 38 36 36 35 34 34 33 34 34 35 35 34
22 24 26 28 30 31 32 32 33 34 34 35 35 35 35 36 35 35 35 35 35 36 37 37 38 38 38 38 39 39 39 39 39 38 37 36 35 35 36 35 35 36 35

GEFSSE_500_meanwind_102.txt.gz
Wind_Speed
3 3 3 2 2 2 2 2 2 2 2 2 2 3 4 4 4 4 5 5 5 5 5 5 5 5 4 4 4 4 4 4 4 4 4 4 5 5 6 6 6 7 8
3 3 3 2 2 3 3 3 3 3 3 2 2 1 2 2 2 3 3 3 3 3 3 3 3 3 3 3 3 3 3 3 3 3 4 4 5 5 5 5 6 7 8
3 3 3 3 3 3 4 5 5 5 4 4 3 3 2 1 1 1 1 1 1 1 2 1 1 1 1 1 1 2 2 2 3 3 4 4 5 5 5 5 6 6 7
4 3 3 3 4 5 6 6 6 6 6 5 5 4 3 3 3 2 2 2 2 2 3 3 2 2 2 1 1 1 2 2 3 4 4 4 4 5 5 5 5 6 7
4 4 4 5 6 6 7 8 8 8 8 7 7 6 5 5 5 5 4 4 4 4 4 4 4 4 4 3 3 3 3 4 4 5 5 5 5 6 6 6 6 7 7
6 6 6 6 7 8 9 10 10 10 10 9 8 8 8 7 7 7 6 6 6 6 6 6 6 6 6 6 5 5 5 6 5 6 6 6 6 6 7 7 7 7 8
7 7 8 8 9 10 10 11 11 11 11 11 11 10 10 9 9 8 8 8 7 7 7 7 7 7 8 8 8 8 7 7 7 8 8 8 8 8 8 8 8 8 8
9 9 10 10 11 11 11 12 13 13 13 13 12 12 12 11 11 11 10 10 9 9 9 9 9 9 9 9 9 10 10 10 10 10 11 11 10 10 10 10 10 10 9
12 12 12 13 13 13 13 14 14 14 15 15 15 14 14 13 13 13 12 12 11 11 11 11 11 11 11 11 12 12 12 12 13 13 13 14 13 13 12 12 12 11 11
15 14 14 15 16 16 16 16 17 17 17 17 17 17 17 16 16 16 15 15 14 14 14 13 13 13 14 14 13 13 14 14 15 15 15 16 16 16 15 14 14 14 13
18 18 17 17 18 18 18 18 19 19 20 20 21 20 20 19 19 18 18 18 17 17 17 16 16 16 15 16 16 15 15 16 16 17 17 18 18 18 18 17 17 16 15
20 20 19 20 20 20 20 21 21 22 23 23 24 24 23 23 23 22 21 21 20 20 19 19 19 19 19 19 18 18 18 18 18 19 19 20 21 21 21 20 19 18 18
21 21 21 21 21 21 22 23 24 25 25 26 26 27 27 27 26 26 25 24 23 23 22 22 21 21 21 21 21 20 20 20 19 20 20 21 23 23 23 23 22 21 20
21 21 21 22 22 23 23 24 25 27 27 27 28 29 30 30 29 28 28 28 27 27 26 25 23 24 24 23 21 21 21 21 21 21 21 22 23 25 25 24 24 23 23
23 23 23 24 24 25 25 25 26 26 27 29 29 29 30 31 31 32 30 28 29 29 28 27 26 25 25 25 23 24 24 23 23 23 22 23 24 25 26 27 26 26 25
25 24 25 25 26 26 26 26 27 26 26 28 29 29 29 29 31 33 31 31 30 30 29 29 27 27 26 25 25 25 24 24 23 24 24 25 26 26 26 28 28 28 27
25 25 26 26 26 26 26 26 26 26 26 27 27 28 28 27 27 27 28 30 29 29 30 30 29 28 27 27 27 26 26 25 25 24 25 25 26 28 28 29 30 30 30
26 25 25 25 25 25 25 26 26 25 25 25 25 26 25 27 26 26 25 27 29 28 28 29 30 29 28 27 27 27 27 26 26 26 26 27 27 28 29 30 31 31 32
24 23 23 24 24 24 24 26 26 26 26 25 25 25 25 25 25 25 25 26 27 29 29 29 29 29 29 28 27 27 27 27 27 26 27 28 29 29 29 31 31 32 33
22 21 21 22 23 24 24 25 26 27 26 25 25 26 25 25 25 26 27 28 29 30 30 31 31 31 31 30 30 29 29 28 28 27 27 28 28 28 30 32 33 33 34
18 19 19 20 20 21 23 24 25 24 24 25 26 26 26 27 27 27 29 30 30 31 32 32 33 34 33 32 31 31 31 30 30 29 29 29 29 30 30 32 34 35 34
18 18 18 19 21 22 23 23 23 24 25 26 26 26 27 27 28 28 28 30 31 32 33 34 34 34 34 34 33 33 32 31 31 32 32 31 32 32 32 32 34 35 35
16 17 18 20 20 21 22 23 24 25 26 26 26 27 27 28 29 29 30 31 32 33 33 34 34 35 35 35 34 34 34 34 34 33 34 34 34 34 34 34 34 35 35
16 18 19 20 21 22 23 24 25 26 26 26 27 27 28 29 29 30 30 31 31 32 32 33 34 34 35 35 35 35 36 36 36 35 36 37 36 36 36 36 36 35 36
17 19 21 22 23 23 23 24 25 26 27 27 28 28 29 30 30 31 31 31 31 32 33 33 34 34 35 35 36 36 37 37 37 37 36 37 38 38 38 37 37 37 37
19 21 21 22 22 23 24 24 25 26 27 28 28 29 30 31 31 32 32 32 32 32 33 33 34 35 36 36 37 37 38 38 39 39 39 38 39 39 39 39 38 38 38